Vorticity
6 6 5 4 3 3 4 5 4 4 5 5 4 3 5 8 6 5 8 9 7 4 7 11 9 7 5 3 3 4 5 4 3 4 6 6 11 12 4 3 6 5 4 4 4 4 12 15 11 9 9 8 8 6 3 2 3 3 3 5 6 6 7 7 8 10 10 11 11 11 11 10 9 8 7 7 7 7 6 6 6 6 7 6 7 6 5 5 4 4 4 4 4 4 4 4 4
6 7 6 5 4 4 4 5 5 5 5 6 5 4 5 8 8 5 9 10 7 5 2 1 4 6 5 5 6 6 6 6 4 4 6 7 8 4 -1 2 3 4 3 1 3 3 4 8 6 4 1 -1 -2 -2 -1 1 2 3 3 4 5 6 8 7 7 6 6 6 7 8 9 9 8 8 7 6 6 7 6 5 5 5 5 5 6 6 6 6 5 5 5 4 4 5 5 5 4
6 7 7 7 6 6 6 5 5 4 6 8 6 6 4 3 7 5 4 7 5 3 2 2 4 5 5 5 5 5 5 7 6 5 5 6 6 1 1 6 4 1 0 -0 4 6 2 -0 2 1 -2 -4 -4 -2 -0 1 3 3 1 4 5 5 5 3 2 2 2 3 5 4 3 3 4 4 3 3 4 4 3 4 4 4 5 5 5 5 5 6 6 6 5 5 5 4 4 5 5
7 8 8 8 7 6 6 5 5 6 6 8 7 8 6 0 6 8 2 9 14 9 7 9 8 4 3 3 1 1 2 4 6 6 5 5 8 6 5 7 8 5 -0 -0 4 9 6 -0 2 3 0 -2 -1 1 0 1 6 3 1 5 5 3 1 1 2 2 4 4 3 2 2 2 3 3 3 4 4 4 4 5 5 5 5 5 6 6 6 6 6 6 6 6 6 6 5 5 5
7 7 7 6 7 6 6 7 7 10 9 8 5 4 8 2 1 5 2 6 9 4 2 5 9 8 5 4 3 2 2 3 6 7 7 6 8 10 8 5 7 12 8 2 2 8 11 7 4 2 0 -2 -3 0 3 8 11 6 4 7 5 2 1 2 2 3 4 3 2 3 4 5 4 4 3 3 4 5 5 5 5 4 5 5 6 6 6 6 7 7 6 6 7 7 7 7 6
6 6 6 6 7 8 10 12 11 11 8 7 5 4 7 3 2 6 7 4 -9 -13 -3 4 8 10 8 8 8 7 6 6 7 7 8 7 6 7 10 12 10 10 12 8 4 5 8 10 7 5 6 2 0 2 5 14 16 9 6 7 3 1 2 3 2 2 4 4 4 5 5 5 4 4 3 2 2 3 4 4 4 4 4 5 5 5 6 6 6 7 6 6 6 6 6 7 7
7 8 7 8 9 10 10 12 9 6 4 4 6 9 10 4 2 3 5 6 -4 -8 0 3 3 4 5 7 8 9 8 6 5 6 9 9 7 4 4 15 13 2 6 12 13 11 9 10 8 6 6 3 5 7 4 8 12 8 5 5 2 2 3 2 2 3 3 4 5 4 4 4 4 4 5 5 4 4 4 4 5 5 5 5 5 5 5 5 5 6 6 6 6 6 6 6 6
9 12 11 10 13 11 7 8 9 8 7 6 7 12 17 9 -2 -3 2 8 9 9 10 8 5 6 9 10 11 10 10 10 8 9 11 8 6 5 3 9 8 -0 2 5 7 10 9 9 6 4 5 6 10 10 5 5 7 7 7 6 4 4 2 1 2 3 4 5 4 4 4 4 5 5 5 6 6 5 5 5 5 6 6 6 5 5 5 6 6 6 6 6 6 6 6 6 6
10 14 14 12 11 6 2 4 10 14 12 10 9 8 18 16 2 1 5 5 4 5 7 11 11 10 9 10 12 8 8 13 12 9 11 7 2 2 5 5 4 5 7 7 6 6 7 8 9 9 12 16 17 10 4 3 2 2 2 2 3 3 3 4 5 6 6 6 5 5 5 4 5 4 4 5 6 6 6 6 6 6 6 6 6 5 5 5 5 6 6 6 6 6 6 6 6
6 8 10 10 8 3 2 1 2 7 9 10 7 4 12 15 8 7 5 2 2 2 -1 1 6 6 5 7 9 5 2 9 9 6 8 10 6 1 2 3 4 4 5 7 8 7 8 9 11 12 12 12 15 12 8 6 4 3 4 4 6 7 8 10 9 9 9 8 7 7 7 6 6 6 5 4 5 5 5 5 5 5 5 4 4 4 4 4 4 4 4 4 4 4 4 4 5
5 6 6 6 6 7 10 8 7 9 8 10 8 2 0 -2 -2 1 1 2 5 6 3 1 2 2 8 13 13 7 1 2 5 4 4 7 9 5 1 1 3 4 2 3 3 2 0 1 3 5 5 4 4 6 8 9 9 9 9 10 10 10 10 11 10 10 9 9 8 7 7 7 7 7 6 5 5 5 4 4 3 4 3 3 3 3 3 3 3 3 3 3 3 3 3 3 3
11 10 9 6 5 7 10 7 10 12 9 12 15 10 4 0 -1 -1 -1 5 10 9 8 9 5 2 8 14 13 8 1 -2 3 7 3 2 5 5 3 2 4 5 6 7 7 6 4 2 4 6 7 6 4 3 4 5 7 7 7 7 7 7 6 7 7 7 7 6 6 6 5 5 5 5 5 4 4 4 4 4 4 4 3 3 3 2 3 3 3 3 3 3 4 4 4 3 3
16 16 15 13 10 8 10 7 4 2 -1 4 11 13 13 13 13 11 8 10 14 9 5 5 3 5 7 7 7 3 1 -0 6 13 9 7 6 3 3 5 5 4 7 7 7 9 10 8 7 8 9 9 9 8 7 6 6 6 6 5 4 4 4 4 4 4 5 4 4 4 4 3 3 3 3 3 3 3 3 3 3 3 4 4 4 4 4 3 3 3 3 3 4 4 4 4 4
10 13 15 16 15 12 11 11 10 8 4 2 -2 -2 -1 -0 5 10 10 10 10 7 5 6 8 12 8 6 9 5 4 4 5 8 8 8 9 9 9 8 8 8 9 8 7 7 10 10 8 7 6 5 5 5 7 7 5 5 5 5 5 4 4 4 3 3 3 3 4 3 4 4 4 4 4 4 4 4 4 4 4 4 5 5 5 5 5 5 4 4 4 4 4 4 4 4 4
3 6 9 12 15 15 14 13 14 14 14 13 5 -1 -4 -5 -1 4 7 7 7 8 8 7 6 8 4 3 9 10 10 11 9 7 4 2 1 4 5 6 8 9 10 11 9 4 5 8 7 6 6 4 3 3 5 6 6 5 5 5 5 5 5 5 5 4 4 5 5 5 5 5 5 5 5 5 5 5 5 5 5 4 4 4 4 4 4 4 4 4 4 4 4 4 4 4 4
3 2 2 4 7 10 13 13 13 13 13 17 16 12 9 7 7 9 10 6 4 7 10 10 7 8 9 4 0 2 6 9 12 12 12 11 9 8 5 4 5 4 6 12 13 6 3 6 7 8 8 8 6 5 5 6 7 7 7 6 6 5 5 5 5 5 5 5 5 5 4 4 4 4 4 4 4 4 4 4 4 4 4 4 4 4 4 4 4 4 4 4 4 4 4 4 4
4 4 2 1 2 4 8 9 9 11 12 14 15 15 15 13 11 12 15 14 11 8 9 13 12 12 15 16 9 3 3 4 5 7 10 13 14 13 12 10 8 4 3 8 12 11 7 7 8 8 9 9 8 7 6 6 6 6 5 5 5 5 4 4 4 4 3 3 3 3 3 3 3 3 3 3 3 3 3 3 3 4 4 4 5 5 6 6 7 7 7 8 8 8 8 8 8
4 4 5 4 3 2 3 5 4 4 8 10 11 11 12 14 12 11 12 14 14 10 8 10 10 9 11 18 17 9 9 11 8 7 8 9 9 9 9 10 10 8 5 4 7 9 7 6 6 6 6 7 7 7 6 6 5 4 4 4 3 3 3 3 3 3 3 3 3 3 3 3 3 3 3 3 4 4 5 5 6 6 7 8 9 9 10 10 10 10 11 11 11 11 10 10 10
4 5 5 5 5 4 2 3 3 1 3 5 6 7 7 9 9 9 9 9 13 12 10 9 7 8 8 11 14 10 9 12 11 9 9 9 8 6 5 5 5 5 4 3 3 5 4 4 3 3 4 4 4 5 4 4 3 3 3 3 3 3 3 4 4 4 4 4 4 4 5 5 5 6 6 7 8 8 9 9 10 10 10 10 10 10 10 9 9 9 8 8 8 8 8 8 7
5 6 6 5 5 7 6 4 4 2 2 4 5 5 5 6 6 6 5 6 9 8 8 8 6 6 6 6 10 10 7 8 9 9 9 9 9 8 6 6 5 4 3 2 3 4 3 2 2 2 3 3 3 3 3 3 3 4 4 4 4 4 5 5 5 6 6 6 7 8 9 9 10 10 11 11 11 11 11 11 10 10 9 8 8 7 7 7 6 6 6 6 7 7 7 7 7
6 6 6 7 7 7 7 6 6 6 5 5 5 5 3 4 5 6 5 6 6 4 4 6 5 5 5 4 5 6 6 7 7 6 6 7 8 8 8 7 7 6 5 4 4 3 3 4 3 3 3 3 4 4 4 4 4 5 5 6 6 7 8 9 9 10 11 11 11 12 11 11 11 11 10 10 9 8 8 7 7 7 7 7 7 7 7 8 8 8 8 8 8 8 8 8 8
7 7 8 9 7 7 7 8 9 9 9 7 6 5 4 3 4 4 4 4 5 4 4 4 4 4 4 2 2 2 3 3 3 4 4 4 4 4 5 5 5 6 5 5 5 4 5 6 5 5 5 6 5 5 6 5 6 8 8 9 10 11 11 11 11 11 11 11 10 10 9 9 8 8 7 7 6 6 6 6 6 7 7 7 7 8 8 9 9 9 10 10 10 10 10 10 10
8 8 10 8 6 6 8 10 11 11 12 11 9 7 6 4 4 4 3 3 3 3 4 3 3 3 2 2 2 3 3 4 4 4 4 5 6 5 5 5 5 5 5 5 5 5 6 7 6 6 8 8 8 9 9 10 11 11 11 11 10 10 10 9 9 8 8 8 7 7 7 7 6 6 6 6 7 7 8 8 8 9 9 9 9 9 9 9 9 9 9 9 10 10 11 12 12
9 9 8 7 8 8 8 9 9 9 11 11 11 11 9 7 5 4 4 4 3 3 3 4 5 6 6 6 6 7 7 6 7 6 6 6 6 7 7 7 7 6 6 6 6 7 8 9 9 10 11 11 11 11 11 11 10 10 9 9 9 8 8 7 7 7 7 6 6 6 6 7 7 8 8 9 9 9 10 9 9 9 10 10 10 11 11 11 11 11 11 11 12 12 12 13 13
10 10 8 8 8 8 8 7 7 7 8 8 10 10 10 11 9 9 8 6 6 5 5 6 8 9 9 8 8 8 8 8 7 6 6 5 5 5 6 6 6 8 8 9 10 12 11 12 11 11 10 10 10 10 9 9 8 8 8 7 7 7 6 6 6 6 6 6 7 7 8 9 9 9 9 9 10 11 11 11 11 11 11 11 11 11 11 12 12 13 13 13 13 13 13 13 12
9 9 8 8 8 8 8 9 8 7 6 6 7 8 9 9 9 11 9 8 9 8 8 7 7 8 7 7 7 7 7 8 7 7 7 7 7 6 7 7 9 11 10 10 11 10 9 10 10 9 9 9 9 8 8 7 6 7 6 6 6 6 6 7 7 8 8 8 8 9 9 9 9 9 10 10 11 11 12 12 11 11 11 11 11 12 12 12 13 12 12 12 11 11 10 10 9
10 10 10 9 9 9 8 9 9 8 9 8 8 8 10 9 8 10 9 9 9 9 9 8 8 7 7 7 8 9 9 9 9 10 11 11 11 11 11 11 11 10 8 8 8 8 9 9 9 9 8 7 7 7 6 5 5 6 6 6 6 7 8 8 9 9 8 9 8 9 9 10 10 10 11 11 10 10 9 9 9 10 10 11 12 11 11 10 9 9 8 7 7 6 5 5 4
8 8 9 9 9 9 8 8 8 8 9 8 9 10 10 11 10 11 10 11 11 11 12 11 12 11 12 13 12 12 11 11 11 11 11 10 9 9 10 10 9 10 10 10 10 10 10 8 8 7 6 6 6 6 6 7 7 8 9 9 9 10 10 9 10 10 9 10 10 11 11 11 11 11 11 10 10 10 9 10 10 10 10 9 9 8 7 6 6 5 4 4 3 3 2 2 2
7 6 7 8 8 8 8 8 8 8 8 7 8 8 9 11 10 11 11 11 11 11 11 10 11 11 11 11 10 10 10 9 9 9 8 8 9 9 9 9 9 10 11 10 9 9 8 7 7 6 7 8 7 8 9 10 10 11 11 10 11 11 11 11 12 11 11 11 11 12 12 11 11 10 10 10 10 11 10 10 9 8 7 6 5 4 4 3 3 3 3 3 2 2 2 2 2
8 8 8 8 8 9 8 8 7 7 8 7 8 7 8 8 8 9 8 8 8 8 7 6 7 6 7 7 8 9 9 9 10 10 11 11 11 11 10 9 9 8 7 7 7 7 7 7 8 9 10 10 10 10 11 11 11 11 11 11 12 12 11 12 12 11 10 10 10 11 10 10 10 9 9 9 9 9 7 6 5 4 4 4 4 3 3 3 3 3 3 3 2 2 3 3 3
10 10 10 11 10 11 10 11 12 11 11 10 9 8 7 9 10 10 9 9 9 9 9 9 9 9 10 11 11 11 10 11 11 11 11 10 9 8 7 7 7 7 6 6 7 7 8 8 8 9 10 9 9 10 10 10 10 10 10 10 10 9 9 10 9 9 8 8 9 9 8 8 8 7 7 6 6 5 4 3 3 3 2 2 3 3 2 3 3 3 3 3 3 4 4 4 5
9 9 11 12 11 11 12 13 13 13 14 12 11 11 11 13 13 12 12 12 11 12 13 13 13 13 13 12 11 10 10 10 9 9 7 6 6 5 6 7 7 7 6 6 7 8 8 8 9 9 9 9 8 9 9 9 9 9 8 8 8 8 8 8 7 7 7 8 8 7 7 6 5 5 5 3 2 2 3 2 3 3 3 2 3 3 3 4 5 4 5 5 5 5 5 5 5
8 9 10 10 10 10 10 11 11 11 12 11 10 11 12 12 11 11 10 10 11 12 12 11 10 10 10 9 8 8 7 6 6 6 5 5 6 7 8 8 7 8 8 9 9 10 10 10 10 10 9 9 8 8 8 8 8 8 7 7 7 7 7 6 6 7 7 7 6 6 5 4 4 4 4 4 3 3 3 3 3 3 4 4 4 4 4 5 5 5 5 6 6 5 5 5 5
8 9 9 9 9 9 9 9 10 9 9 10 10 10 11 11 10 10 9 9 10 9 9 7 6 6 6 7 6 6 6 6 6 6 6 7 8 8 8 8 9 9 10 11 11 10 10 10 9 8 7 7 6 6 6 7 7 7 7 7 7 7 7 6 6 6 6 5 5 5 5 5 5 4 4 4 4 4 4 5 6 6 6 6 6 6 6 5 5 5 5 6 6 5 5 5 5
9 9 9 8 8 10 10 10 9 8 8 9 10 9 10 10 9 8 8 8 7 6 7 6 6 6 6 7 7 7 7 8 8 7 9 9 9 9 9 10 10 10 10 9 8 8 7 7 6 6 5 5 5 6 7 7 7 7 7 8 8 7 7 6 6 7 6 6 6 6 6 6 5 5 5 6 6 6 7 7 7 8 7 7 7 7 7 7 7 7 6 6 7 7 7 7 7
10 9 10 9 9 9 9 9 9 8 8 8 9 9 8 7 7 8 8 7 6 6 7 8 8 8 8 9 9 9 10 9 9 9 10 10 9 9 8 8 8 7 6 5 5 5 5 4 5 5 5 6 7 9 9 9 9 9 9 9 9 8 8 9 9 9 9 8 8 7 8 9 8 9 9 9 9 9 9 9 9 9 9 9 9 9 9 9 9 10 10 10 10 10 10 10 10
10 10 10 9 9 9 8 8 8 8 8 8 8 8 8 7 7 7 7 8 7 7 7 7 8 9 9 9 9 10 9 9 9 9 8 8 7 7 6 5 5 5 5 4 5 5 5 6 7 8 8 10 12 12 11 11 12 11 11 11 11 10 10 10 11 11 10 10 10 11 11 11 11 11 11 11 11 11 12 12 12 12 12 13 12 12 12 12 12 12 12 12 11 12 12 11 11
10 10 9 9 9 9 9 8 8 9 8 8 9 9 10 10 9 9 9 10 11 12 13 13 13 13 13 13 13 12 12 11 11 10 9 9 8 8 8 8 7 8 8 9 10 11 11 12 13 13 13 14 13 12 12 13 13 12 12 12 11 11 11 12 12 12 12 12 12 12 11 10 10 10 10 11 11 12 12 13 13 13 13 13 13 13 13 13 13 13 12 12 12 11 11 11 11
11 11 11 11 10 11 11 10 10 11 11 11 12 14 17 16 14 15 15 16 19 20 19 19 19 18 17 17 16 16 16 15 15 14 14 13 13 13 13 13 13 14 15 16 16 16 16 16 16 15 14 13 13 12 13 12 12 11 11 11 10 11 11 11 11 10 11 11 10 10 9 9 8 8 8 8 9 9 10 10 10 10 10 10 11 10 11 11 11 11 11 11 11 11 11 11 10
14 14 14 14 14 15 15 15 16 16 15 15 15 17 19 18 15 15 15 15 16 16 15 14 14 14 14 14 14 15 14 14 13 13 13 14 15 16 16 17 17 17 17 16 15 14 14 13 12 11 10 11 11 11 11 9 9 10 10 10 9 10 10 9 9 10 10 8 8 8 8 8 7 8 8 7 7 8 8 8 8 8 8 8 8 8 8 9 9 9 10 9 10 10 10 11 11
15 15 15 15 15 14 15 15 14 13 13 14 13 13 14 13 11 10 10 10 9 10 11 11 11 11 10 10 10 10 9 9 9 9 10 11 12 14 15 15 14 13 11 10 9 9 8 8 7 7 7 8 8 8 7 7 7 8 7 7 7 8 7 6 8 8 6 6 7 6 7 8 8 8 7 7 7 7 7 7 7 7 7 8 8 8 8 8 8 9 9 9 9 9 9 10 11
10 10 9 9 9 9 9 10 8 8 9 9 8 9 8 8 9 9 8 8 7 8 9 10 11 10 8 8 8 9 9 9 8 9 10 11 10 10 10 10 9 8 8 7 7 7 6 6 6 6 6 6 6 6 5 5 5 5 4 4 4 4 3 4 5 3 2 3 4 4 6 7 6 7 7 7 7 6 6 6 6 7 7 8 8 8 8 8 8 8 9 9 9 9 10 10 10
9 8 8 8 9 8 8 9 9 9 10 8 8 10 9 7 7 8 8 7 7 8 9 10 10 9 8 9 10 9 9 9 10 12 13 13 10 8 7 6 7 7 7 7 7 6 6 6 6 5 5 5 6 5 4 3 4 4 3 3 3 3 4 5 4 2 1 3 3 2 4 4 4 5 6 7 6 6 5 5 6 6 6 7 7 7 8 8 8 8 8 8 9 9 9 10 10
10 9 9 9 10 9 9 10 10 11 12 10 10 11 11 11 11 11 11 9 8 9 9 9 8 8 8 9 10 8 7 9 11 13 13 11 9 8 7 6 6 6 6 6 6 6 7 6 6 6 6 7 6 5 5 5 5 5 5 5 6 7 7 8 5 3 5 6 5 5 5 4 4 4 4 5 5 5 6 7 6 6 6 6 6 7 7 7 7 7 7 7 8 8 7 8 9
9 9 9 9 10 9 9 10 10 11 12 11 12 12 14 19 17 14 12 10 10 10 9 9 9 9 10 10 12 13 13 14 14 14 11 9 7 7 7 6 5 5 4 5 6 6 7 7 7 7 7 8 7 7 8 7 7 6 6 7 9 9 9 9 6 5 7 8 7 8 8 7 6 5 4 3 3 5 6 7 6 6 6 6 6 6 6 7 7 7 7 7 7 6 6 7 8
8 8 9 8 8 8 8 10 9 10 11 11 11 13 17 20 16 11 10 11 13 12 11 12 12 13 14 14 15 15 14 13 13 12 10 8 7 5 5 6 5 5 5 6 7 7 7 7 8 8 9 9 9 9 8 7 7 6 7 8 8 8 8 7 6 7 9 8 8 9 9 8 8 7 7 6 5 5 5 5 6 6 6 6 6 7 7 7 6 6 6 6 6 6 6 7 7
7 7 7 5 6 8 8 8 7 7 8 7 7 10 13 13 8 4 6 9 11 11 12 15 16 17 18 17 15 12 11 11 10 9 8 7 8 8 7 6 6 7 7 7 7 7 7 7 8 9 10 10 9 8 7 7 7 7 8 8 7 8 7 5 6 8 8 7 7 7 7 7 8 9 9 9 8 8 6 4 5 5 5 6 7 7 6 6 6 5 5 5 5 5 6 6 7
6 6 5 4 5 7 6 7 7 6 6 6 7 9 9 9 7 5 6 6 6 8 10 10 11 12 12 11 9 8 8 9 8 9 10 10 10 10 10 10 9 9 8 9 9 9 9 9 9 9 9 8 7 6 7 7 7 7 8 7 7 8 7 7 8 8 7 6 6 6 5 6 6 6 7 8 10 11 8 6 5 5 6 6 7 6 5 5 5 6 6 6 5 5 5 5 5
6 5 3 3 4 4 5 6 5 4 5 5 6 7 8 9 9 7 6 6 7 9 9 7 7 7 6 5 5 6 6 6 7 9 9 8 8 9 9 10 10 9 9 9 10 10 11 10 10 10 8 7 6 6 6 6 7 7 7 6 7 8 8 9 8 8 8 7 7 6 5 5 4 5 6 8 10 10 9 9 9 8 7 6 6 5 5 5 5 5 6 6 6 5 5 5 5
5 3 2 4 3 2 3 3 3 4 4 5 7 8 8 9 9 8 9 12 13 12 8 4 5 5 4 5 4 5 5 5 6 7 5 5 6 6 6 6 6 7 7 8 8 8 8 8 8 8 7 7 7 7 7 7 7 7 6 6 7 7 7 7 7 8 9 8 8 7 5 5 5 5 6 6 7 7 8 10 9 9 8 7 6 6 5 5 4 5 5 6 7 6 6 5 5
4 3 4 6 3 2 3 2 2 2 2 6 8 6 4 6 13 14 12 15 13 5 1 2 4 5 5 5 5 4 4 4 5 6 6 5 5 5 5 4 5 6 7 7 7 7 6 5 5 4 5 5 5 6 6 6 7 6 6 6 6 6 6 6 7 8 8 8 8 7 6 7 6 6 6 5 5 4 6 8 8 9 10 8 8 7 6 5 5 5 5 6 7 7 7 6 6
1 3 6 5 3 3 3 2 2 1 3 6 6 5 3 8 20 22 14 14 7 -7 -6 3 5 3 2 4 5 4 3 3 4 4 4 4 5 4 4 4 4 4 5 5 6 7 7 6 6 5 5 5 5 6 5 5 5 5 6 6 6 6 6 7 8 8 8 8 7 7 8 9 8 7 6 5 5 4 5 7 8 9 10 10 9 9 8 7 5 4 4 6 7 7 7 6 6
-0 3 5 4 4 5 3 1 2 2 1 3 4 4 3 10 30 30 12 6 2 -9 -6 2 3 1 0 1 3 4 4 4 4 4 4 5 4 4 4 5 4 4 4 4 5 6 6 6 7 6 7 7 7 7 6 6 6 5 6 6 6 7 7 8 9 9 8 7 7 8 10 9 8 8 7 6 5 5 6 6 6 8 10 10 11 10 9 8 6 5 5 5 7 7 7 7 6
1 4 4 4 4 5 4 1 1 1 -1 1 3 4 5 12 27 19 -5 -8 -3 -3 1 3 3 3 1 1 1 2 4 3 4 4 4 5 5 4 4 4 4 4 4 4 4 5 6 6 6 6 6 7 7 7 7 7 7 7 7 6 5 6 7 8 9 9 8 7 8 10 9 8 9 9 8 7 6 7 7 6 7 8 9 9 10 10 10 8 7 6 6 6 7 7 8 8 8
4 5 4 4 4 5 4 2 1 1 0 0 -1 4 9 7 10 7 -5 -3 3 4 6 5 3 4 3 3 2 0 1 1 3 4 3 4 4 4 4 3 3 4 3 4 4 4 5 5 5 5 5 5 5 6 7 7 8 9 8 6 4 5 6 7 8 9 8 8 10 10 8 9 9 8 8 8 8 8 8 7 7 8 8 9 10 10 10 9 8 7 7 7 7 8 8 9 9
4 5 5 6 5 2 2 3 4 3 1 -1 -4 4 8 -1 3 10 4 3 6 5 6 6 5 4 3 4 2 -0 0 1 3 4 2 4 4 3 4 3 4 4 3 4 4 3 4 5 5 4 5 6 5 5 6 7 8 9 8 6 4 4 6 7 8 8 8 9 10 9 8 9 8 7 8 9 9 9 8 8 8 8 9 9 10 10 10 9 8 7 7 8 8 8 8 9 10
5 6 5 6 4 2 2 4 7 5 2 -1 -7 -3 4 1 5 10 3 2 6 6 8 7 4 5 4 4 2 -1 0 1 3 4 3 4 5 3 4 4 4 4 4 4 4 4 5 5 4 4 5 6 6 6 6 8 9 9 8 6 4 4 6 7 9 9 9 9 9 8 8 8 6 7 9 9 9 9 9 8 9 9 10 10 10 11 10 9 8 8 8 8 8 8 8 9 9
4 3 3 5 5 5 4 2 6 5 3 2 -6 -7 4 6 4 5 5 6 7 9 12 8 4 7 7 4 1 0 1 1 3 5 6 6 5 3 4 4 4 4 4 4 4 5 6 6 5 4 4 6 6 6 6 8 10 10 8 6 4 5 6 7 9 11 10 10 9 9 8 7 6 7 8 8 8 9 9 9 9 10 10 10 11 11 10 9 8 8 8 8 8 9 9 10 10
Height
5809 5809 5810 5809 5810 5811 5813 5812 5812 5811 5812 5813 5812 5812 5813 5813 5813 5814 5814 5814 5815 5815 5815 5815 5815 5815 5815 5815 5815 5815 5816 5816 5816 5816 5816 5817 5817 5817 5818 5818 5818 5818 5819 5820 5821 5822 5822 5822 5823 5824 5825 5824 5823 5824 5826 5826 5827 5829 5829 5830 5831 5832 5832 5833 5833 5834 5835 5835 5835 5836 5836 5836 5836 5836 5837 5837 5837 5837 5838 5838 5839 5840 5840 5841 5841 5841 5840 5841 5841 5840 5841 5841 5841 5842 5842 5842 5842
5808 5808 5808 5808 5809 5809 5811 5811 5810 5809 5810 5810 5810 5810 5810 5811 5811 5811 5812 5812 5812 5813 5812 5812 5812 5813 5813 5812 5813 5813 5813 5814 5814 5814 5815 5815 5815 5815 5815 5816 5816 5816 5817 5818 5819 5820 5821 5821 5821 5822 5822 5821 5821 5822 5823 5825 5825 5827 5827 5828 5829 5830 5830 5831 5831 5831 5832 5832 5832 5832 5833 5833 5833 5833 5833 5834 5834 5834 5835 5835 5836 5836 5837 5838 5838 5838 5838 5838 5838 5838 5838 5838 5838 5839 5839 5839 5840
5806 5807 5807 5806 5807 5808 5808 5809 5808 5808 5807 5808 5808 5808 5808 5809 5809 5810 5811 5810 5810 5811 5810 5810 5810 5810 5810 5810 5811 5811 5811 5811 5812 5812 5813 5813 5813 5813 5813 5814 5814 5814 5815 5815 5816 5818 5819 5819 5819 5820 5819 5818 5818 5820 5821 5823 5824 5825 5825 5825 5827 5827 5828 5828 5828 5828 5828 5828 5829 5829 5829 5829 5830 5830 5830 5830 5831 5831 5832 5832 5833 5833 5834 5835 5835 5835 5835 5835 5835 5835 5835 5835 5835 5835 5836 5836 5836
5805 5805 5805 5805 5806 5806 5807 5807 5806 5806 5805 5806 5806 5806 5807 5807 5807 5808 5809 5808 5808 5808 5807 5808 5808 5808 5808 5808 5808 5808 5808 5809 5810 5810 5810 5811 5811 5811 5811 5811 5812 5812 5812 5813 5813 5814 5816 5816 5817 5817 5816 5815 5816 5818 5820 5822 5822 5823 5823 5823 5824 5824 5824 5824 5824 5825 5825 5825 5825 5825 5825 5825 5826 5826 5827 5827 5827 5828 5828 5828 5829 5830 5830 5831 5831 5831 5832 5831 5831 5832 5832 5832 5832 5832 5832 5832 5833
5803 5803 5803 5803 5804 5804 5805 5805 5804 5804 5804 5803 5803 5805 5805 5805 5805 5805 5806 5806 5805 5805 5805 5806 5806 5806 5806 5806 5806 5806 5806 5806 5807 5807 5807 5808 5809 5809 5809 5809 5809 5810 5810 5811 5811 5812 5813 5813 5813 5814 5813 5813 5815 5816 5818 5819 5819 5821 5820 5820 5820 5820 5820 5820 5820 5821 5821 5821 5821 5821 5821 5821 5822 5822 5823 5823 5824 5825 5825 5825 5825 5826 5826 5827 5827 5828 5828 5828 5827 5828 5828 5828 5828 5828 5828 5829 5829
5802 5801 5802 5802 5802 5802 5802 5803 5802 5802 5802 5801 5802 5803 5804 5803 5803 5803 5803 5803 5803 5803 5803 5804 5804 5804 5804 5804 5804 5803 5804 5804 5804 5804 5805 5806 5806 5807 5807 5807 5807 5807 5808 5808 5809 5809 5810 5810 5810 5811 5811 5811 5813 5815 5816 5816 5816 5817 5817 5816 5816 5816 5817 5816 5816 5817 5817 5817 5817 5817 5817 5818 5818 5819 5819 5820 5820 5821 5821 5821 5821 5822 5822 5822 5823 5823 5824 5824 5824 5824 5824 5824 5824 5824 5825 5825 5825
5800 5800 5800 5800 5800 5800 5800 5801 5800 5800 5800 5799 5800 5801 5801 5801 5801 5801 5801 5801 5801 5801 5801 5801 5802 5801 5801 5801 5801 5801 5801 5801 5801 5801 5802 5803 5803 5804 5804 5804 5805 5805 5806 5806 5806 5807 5806 5807 5807 5808 5809 5810 5811 5812 5813 5812 5812 5813 5813 5812 5813 5813 5813 5813 5813 5813 5813 5814 5814 5814 5814 5815 5815 5815 5816 5816 5816 5817 5817 5817 5817 5818 5818 5818 5819 5819 5820 5820 5820 5820 5820 5820 5820 5821 5821 5821 5821
5799 5798 5798 5799 5799 5799 5799 5798 5798 5798 5798 5797 5797 5798 5798 5799 5799 5799 5798 5798 5799 5799 5799 5799 5799 5799 5798 5798 5798 5798 5798 5798 5798 5799 5799 5800 5801 5802 5802 5802 5803 5803 5803 5803 5803 5804 5804 5804 5805 5806 5807 5807 5807 5808 5808 5808 5808 5809 5809 5809 5809 5809 5809 5810 5810 5810 5811 5811 5811 5811 5811 5811 5812 5812 5812 5812 5812 5813 5813 5813 5813 5814 5814 5814 5814 5815 5815 5816 5816 5816 5816 5816 5816 5816 5817 5817 5817
5797 5797 5797 5797 5797 5797 5796 5796 5796 5796 5796 5795 5795 5796 5796 5796 5796 5796 5796 5796 5796 5796 5797 5797 5797 5796 5796 5796 5796 5795 5795 5796 5796 5796 5797 5797 5798 5799 5799 5800 5800 5800 5800 5800 5800 5801 5801 5801 5802 5803 5804 5804 5803 5804 5804 5805 5805 5806 5806 5806 5806 5806 5806 5807 5807 5808 5808 5808 5808 5808 5808 5808 5808 5808 5808 5808 5808 5809 5809 5809 5809 5810 5810 5810 5810 5810 5811 5811 5812 5812 5812 5812 5812 5812 5813 5813 5813
5795 5795 5795 5795 5795 5795 5794 5794 5794 5794 5793 5793 5793 5793 5793 5793 5794 5794 5793 5793 5793 5793 5794 5794 5794 5794 5793 5793 5793 5793 5793 5793 5793 5793 5794 5794 5795 5796 5796 5797 5797 5797 5798 5797 5797 5798 5799 5799 5799 5800 5800 5800 5800 5801 5801 5801 5802 5802 5802 5802 5803 5803 5803 5804 5804 5804 5804 5804 5804 5805 5805 5804 5804 5804 5805 5805 5805 5805 5805 5805 5805 5806 5806 5806 5806 5806 5807 5807 5807 5808 5808 5808 5808 5808 5809 5809 5809
5793 5793 5793 5793 5793 5793 5793 5792 5792 5792 5791 5791 5791 5791 5791 5790 5790 5790 5790 5791 5791 5791 5791 5790 5790 5791 5790 5790 5790 5790 5790 5790 5790 5790 5791 5792 5793 5793 5793 5793 5794 5794 5794 5794 5794 5795 5796 5796 5796 5796 5797 5797 5797 5797 5797 5797 5798 5799 5799 5799 5799 5799 5800 5800 5800 5800 5800 5801 5800 5801 5801 5801 5800 5800 5801 5801 5801 5801 5801 5801 5801 5801 5802 5802 5802 5802 5802 5802 5803 5803 5803 5804 5804 5804 5804 5804 5805
5791 5791 5791 5791 5790 5790 5791 5791 5790 5790 5789 5789 5789 5789 5788 5788 5787 5787 5788 5788 5788 5788 5788 5787 5787 5788 5788 5787 5787 5787 5787 5787 5787 5787 5788 5789 5790 5791 5790 5791 5791 5791 5791 5791 5791 5792 5792 5793 5793 5793 5793 5794 5793 5793 5794 5794 5795 5795 5795 5795 5795 5796 5796 5796 5796 5797 5797 5797 5797 5797 5797 5797 5797 5797 5797 5797 5797 5797 5797 5797 5797 5797 5797 5797 5798 5798 5798 5798 5798 5798 5798 5799 5799 5799 5799 5800 5800
5790 5789 5789 5788 5788 5788 5788 5789 5788 5788 5787 5787 5787 5787 5786 5786 5786 5785 5785 5785 5785 5785 5785 5785 5785 5785 5785 5785 5784 5784 5785 5785 5785 5785 5784 5785 5786 5787 5787 5787 5788 5788 5788 5788 5788 5788 5789 5790 5790 5790 5790 5791 5790 5790 5791 5791 5791 5791 5791 5791 5792 5792 5792 5792 5792 5793 5793 5793 5793 5793 5793 5793 5793 5793 5793 5793 5793 5793 5793 5793 5792 5792 5792 5793 5793 5793 5793 5793 5793 5793 5793 5793 5794 5794 5794 5794 5795
5788 5787 5787 5786 5786 5786 5786 5786 5786 5786 5785 5785 5785 5784 5784 5784 5784 5783 5783 5782 5782 5782 5782 5782 5782 5782 5782 5782 5781 5781 5781 5782 5782 5782 5782 5782 5782 5783 5784 5784 5784 5785 5785 5785 5785 5785 5786 5786 5786 5786 5787 5787 5787 5788 5788 5788 5788 5788 5788 5788 5788 5788 5788 5788 5788 5788 5788 5789 5789 5789 5789 5789 5789 5789 5789 5789 5789 5788 5788 5788 5788 5788 5788 5788 5787 5787 5787 5787 5787 5787 5788 5788 5788 5788 5789 5789 5789
5786 5785 5785 5784 5784 5783 5783 5784 5784 5783 5782 5782 5782 5782 5781 5781 5781 5781 5781 5780 5779 5779 5779 5779 5779 5779 5779 5778 5778 5778 5778 5778 5779 5779 5779 5779 5780 5780 5781 5781 5781 5782 5782 5782 5782 5783 5783 5783 5783 5783 5783 5784 5784 5785 5785 5785 5784 5784 5785 5784 5784 5784 5784 5784 5784 5784 5784 5784 5784 5784 5784 5784 5784 5784 5784 5784 5784 5784 5783 5783 5783 5783 5783 5782 5782 5782 5782 5782 5782 5782 5782 5782 5782 5783 5783 5783 5784
5784 5783 5783 5782 5782 5781 5781 5782 5781 5781 5780 5779 5779 5779 5779 5778 5778 5778 5778 5777 5777 5776 5776 5776 5776 5776 5775 5774 5774 5775 5775 5775 5775 5775 5775 5776 5777 5777 5777 5778 5778 5779 5779 5778 5778 5779 5780 5780 5780 5780 5780 5780 5780 5781 5781 5781 5781 5781 5781 5781 5780 5780 5780 5780 5780 5780 5780 5780 5780 5779 5779 5779 5779 5779 5779 5779 5779 5779 5778 5778 5778 5778 5777 5777 5777 5777 5777 5776 5776 5776 5776 5776 5776 5777 5777 5777 5778
5782 5781 5780 5780 5779 5779 5779 5779 5778 5778 5778 5777 5776 5776 5776 5776 5775 5775 5775 5775 5774 5773 5773 5773 5773 5772 5771 5771 5771 5771 5772 5772 5771 5771 5772 5772 5773 5773 5774 5775 5775 5776 5776 5776 5775 5775 5776 5776 5776 5776 5776 5776 5776 5777 5777 5777 5777 5777 5777 5776 5776 5776 5776 5776 5776 5775 5775 5775 5775 5775 5774 5774 5774 5774 5773 5773 5773 5773 5773 5772 5772 5772 5772 5771 5771 5771 5771 5771 5771 5770 5770 5770 5770 5770 5770 5771 5771
5779 5778 5778 5778 5777 5777 5776 5776 5775 5775 5776 5775 5774 5774 5774 5773 5773 5772 5772 5772 5771 5771 5770 5770 5770 5769 5769 5768 5768 5768 5769 5769 5768 5768 5768 5769 5770 5770 5770 5771 5772 5773 5773 5773 5773 5772 5772 5772 5772 5773 5773 5773 5773 5772 5772 5772 5772 5772 5772 5772 5772 5772 5772 5771 5771 5771 5771 5770 5770 5769 5769 5769 5769 5768 5768 5768 5767 5767 5767 5767 5766 5766 5766 5765 5765 5765 5765 5764 5764 5764 5764 5764 5764 5764 5764 5764 5764
5776 5775 5775 5775 5775 5774 5773 5773 5772 5772 5773 5772 5772 5772 5771 5770 5769 5769 5769 5769 5769 5768 5768 5767 5767 5766 5766 5765 5765 5766 5766 5766 5765 5765 5765 5766 5766 5767 5767 5767 5768 5769 5769 5770 5770 5769 5769 5767 5767 5768 5769 5769 5768 5768 5768 5768 5768 5768 5768 5768 5767 5767 5767 5767 5766 5766 5766 5765 5764 5764 5764 5763 5763 5763 5762 5762 5762 5761 5761 5761 5761 5760 5760 5760 5759 5759 5759 5758 5758 5758 5758 5758 5758 5757 5757 5757 5758
5773 5772 5772 5773 5773 5772 5770 5770 5769 5769 5769 5770 5769 5769 5769 5768 5766 5765 5766 5767 5767 5766 5765 5764 5764 5763 5763 5763 5762 5763 5763 5763 5762 5762 5762 5762 5762 5763 5764 5764 5764 5765 5765 5766 5766 5766 5765 5764 5762 5763 5763 5764 5764 5764 5763 5763 5763 5763 5763 5762 5762 5762 5761 5761 5761 5761 5760 5759 5759 5759 5758 5758 5757 5757 5757 5756 5756 5755 5755 5755 5755 5754 5754 5754 5754 5753 5753 5752 5752 5752 5752 5751 5751 5751 5751 5751 5751
5771 5770 5770 5770 5769 5769 5767 5766 5766 5765 5765 5766 5766 5765 5765 5765 5764 5763 5763 5764 5764 5763 5762 5762 5761 5761 5761 5760 5760 5759 5760 5760 5759 5759 5758 5758 5758 5759 5759 5759 5759 5760 5760 5761 5762 5762 5762 5761 5759 5758 5758 5758 5759 5759 5758 5758 5758 5757 5757 5757 5757 5756 5756 5756 5755 5755 5755 5754 5753 5753 5752 5752 5752 5751 5751 5750 5750 5750 5749 5749 5749 5749 5748 5748 5748 5747 5747 5747 5746 5746 5745 5745 5745 5744 5744 5744 5744
5767 5767 5768 5767 5765 5765 5764 5763 5762 5762 5761 5762 5763 5762 5761 5761 5762 5760 5760 5761 5761 5760 5760 5760 5759 5758 5758 5758 5757 5757 5757 5757 5756 5756 5755 5755 5754 5754 5754 5755 5755 5755 5755 5756 5756 5756 5758 5757 5756 5754 5754 5754 5754 5753 5753 5753 5752 5752 5752 5751 5751 5751 5750 5750 5749 5749 5749 5748 5748 5748 5747 5747 5746 5746 5745 5745 5744 5744 5743 5743 5743 5743 5742 5742 5741 5741 5741 5740 5740 5740 5739 5739 5738 5738 5738 5737 5737
5764 5764 5765 5764 5762 5761 5761 5760 5759 5758 5758 5758 5758 5759 5758 5758 5758 5757 5757 5757 5758 5758 5757 5757 5756 5756 5755 5755 5754 5754 5754 5753 5753 5752 5752 5751 5751 5750 5750 5750 5750 5750 5750 5750 5750 5751 5752 5753 5752 5751 5750 5750 5749 5749 5748 5748 5747 5747 5746 5746 5745 5745 5744 5744 5744 5744 5743 5743 5743 5742 5741 5741 5741 5740 5740 5739 5739 5738 5738 5737 5737 5737 5736 5736 5736 5735 5735 5734 5734 5733 5733 5733 5732 5732 5731 5731 5731
5763 5762 5761 5761 5759 5758 5758 5758 5757 5756 5755 5754 5754 5755 5755 5755 5754 5754 5754 5754 5754 5754 5754 5754 5753 5753 5752 5751 5751 5750 5750 5749 5749 5749 5748 5748 5747 5746 5746 5746 5746 5746 5745 5745 5745 5745 5746 5747 5746 5746 5745 5745 5745 5744 5744 5743 5742 5742 5741 5741 5740 5740 5739 5738 5738 5738 5738 5737 5737 5737 5736 5735 5735 5735 5734 5734 5733 5733 5732 5732 5731 5731 5730 5730 5730 5729 5729 5728 5728 5727 5727 5726 5726 5726 5725 5725 5724
5761 5760 5759 5758 5757 5756 5755 5755 5754 5753 5752 5751 5751 5751 5751 5751 5751 5751 5751 5750 5750 5750 5750 5751 5750 5749 5748 5747 5747 5746 5746 5746 5745 5745 5744 5744 5743 5743 5742 5742 5741 5741 5741 5740 5740 5740 5740 5741 5741 5740 5740 5740 5740 5739 5739 5738 5737 5736 5736 5735 5735 5735 5734 5733 5733 5733 5732 5732 5731 5731 5730 5729 5729 5729 5728 5728 5728 5727 5727 5726 5726 5725 5725 5724 5724 5723 5723 5722 5722 5721 5721 5720 5720 5719 5719 5719 5718
5758 5757 5757 5756 5755 5754 5753 5752 5751 5750 5749 5749 5748 5748 5748 5748 5748 5748 5747 5746 5746 5745 5746 5747 5747 5746 5745 5743 5742 5742 5742 5742 5741 5741 5740 5740 5739 5739 5738 5738 5737 5737 5736 5736 5736 5736 5736 5736 5736 5735 5735 5735 5735 5734 5734 5733 5732 5731 5731 5730 5730 5729 5728 5727 5727 5727 5726 5726 5725 5725 5724 5723 5723 5723 5722 5722 5722 5721 5721 5720 5720 5719 5719 5718 5718 5717 5717 5716 5716 5715 5715 5714 5714 5713 5713 5713 5712
5756 5755 5754 5753 5752 5751 5750 5750 5749 5748 5747 5746 5745 5745 5745 5744 5744 5745 5743 5743 5742 5741 5741 5742 5742 5742 5741 5740 5739 5738 5738 5737 5737 5736 5736 5736 5735 5735 5734 5734 5734 5733 5733 5732 5732 5731 5731 5732 5731 5731 5731 5730 5730 5729 5729 5728 5727 5726 5726 5725 5724 5724 5723 5722 5721 5720 5720 5720 5719 5719 5718 5718 5717 5717 5716 5716 5716 5715 5715 5714 5714 5713 5713 5712 5712 5711 5711 5710 5710 5709 5709 5708 5708 5707 5707 5707 5706
5753 5752 5752 5751 5750 5749 5748 5747 5746 5745 5744 5743 5743 5742 5742 5741 5741 5740 5739 5739 5739 5738 5737 5737 5737 5737 5737 5736 5735 5735 5734 5733 5732 5732 5732 5731 5731 5730 5730 5730 5730 5729 5729 5729 5728 5727 5727 5727 5727 5726 5726 5726 5725 5724 5724 5723 5722 5721 5721 5720 5719 5719 5717 5717 5716 5715 5714 5714 5714 5713 5713 5712 5711 5711 5711 5710 5710 5710 5709 5708 5708 5707 5707 5707 5706 5705 5705 5704 5703 5703 5703 5702 5702 5701 5701 5700 5700
5750 5750 5749 5748 5748 5747 5746 5745 5744 5743 5741 5741 5740 5739 5739 5738 5738 5737 5736 5736 5735 5734 5733 5732 5732 5732 5732 5732 5732 5731 5730 5729 5729 5728 5728 5727 5726 5726 5726 5725 5725 5725 5725 5725 5724 5723 5723 5723 5722 5722 5721 5721 5720 5719 5719 5718 5716 5716 5715 5714 5714 5713 5712 5712 5711 5709 5709 5708 5708 5708 5707 5707 5706 5705 5705 5705 5704 5704 5703 5702 5702 5701 5701 5701 5700 5699 5699 5698 5697 5697 5697 5696 5696 5695 5694 5694 5693
5748 5747 5747 5746 5745 5745 5744 5742 5741 5740 5739 5738 5737 5736 5737 5736 5734 5734 5733 5732 5731 5731 5729 5728 5728 5728 5728 5728 5728 5727 5726 5726 5725 5724 5723 5723 5723 5722 5721 5721 5721 5721 5721 5720 5720 5718 5718 5717 5717 5716 5716 5715 5714 5714 5713 5712 5711 5710 5709 5709 5708 5708 5707 5707 5706 5704 5703 5703 5703 5703 5702 5701 5700 5700 5700 5699 5699 5698 5697 5696 5695 5695 5694 5694 5694 5693 5693 5692 5691 5691 5690 5690 5689 5689 5688 5687 5686
5746 5745 5744 5743 5743 5742 5741 5740 5738 5737 5736 5735 5733 5733 5734 5733 5731 5730 5729 5728 5728 5727 5726 5725 5725 5724 5723 5723 5723 5723 5722 5722 5721 5720 5720 5719 5719 5718 5717 5717 5717 5717 5716 5715 5714 5713 5712 5712 5711 5711 5710 5709 5709 5708 5708 5707 5706 5705 5704 5703 5703 5703 5702 5701 5700 5699 5698 5697 5697 5697 5696 5696 5695 5694 5694 5694 5693 5691 5691 5690 5689 5689 5688 5688 5687 5687 5686 5685 5684 5684 5683 5683 5682 5682 5681 5680 5679
5743 5742 5742 5740 5739 5739 5738 5737 5736 5735 5733 5732 5730 5729 5731 5730 5728 5726 5725 5725 5724 5723 5723 5722 5721 5720 5720 5719 5719 5718 5718 5718 5718 5717 5716 5715 5715 5714 5714 5714 5713 5712 5711 5710 5709 5708 5707 5706 5706 5706 5705 5704 5704 5703 5703 5702 5701 5700 5699 5698 5697 5697 5697 5696 5695 5694 5693 5692 5691 5691 5690 5690 5689 5688 5688 5688 5687 5686 5685 5684 5683 5682 5682 5682 5680 5680 5680 5678 5677 5677 5676 5675 5675 5674 5673 5672 5671
5740 5740 5739 5737 5736 5735 5735 5734 5733 5732 5730 5729 5727 5726 5728 5726 5724 5723 5722 5721 5721 5721 5720 5719 5718 5717 5717 5716 5715 5715 5714 5714 5714 5713 5712 5712 5711 5710 5710 5709 5708 5707 5706 5706 5705 5704 5702 5701 5701 5701 5700 5700 5699 5699 5698 5697 5696 5695 5694 5693 5692 5692 5692 5691 5690 5689 5688 5687 5686 5686 5685 5684 5684 5683 5682 5682 5681 5680 5679 5678 5677 5676 5675 5675 5674 5673 5673 5671 5670 5669 5668 5667 5667 5666 5665 5664 5664
5738 5737 5737 5735 5733 5732 5731 5731 5730 5728 5727 5726 5724 5724 5725 5723 5720 5719 5719 5718 5718 5718 5716 5715 5715 5715 5714 5713 5712 5712 5711 5710 5710 5709 5708 5708 5707 5706 5705 5704 5703 5703 5702 5702 5701 5699 5698 5697 5696 5696 5696 5695 5694 5694 5693 5692 5691 5690 5689 5688 5687 5687 5686 5686 5685 5684 5683 5682 5681 5680 5680 5679 5678 5677 5676 5675 5675 5674 5672 5671 5670 5669 5669 5668 5667 5666 5665 5663 5662 5661 5661 5659 5658 5658 5657 5656 5655
5735 5735 5734 5733 5731 5730 5728 5727 5726 5725 5724 5723 5721 5721 5722 5720 5717 5716 5716 5715 5715 5713 5712 5712 5712 5712 5711 5710 5709 5708 5707 5707 5705 5704 5704 5703 5702 5701 5700 5699 5699 5698 5697 5697 5696 5695 5694 5693 5692 5691 5691 5690 5689 5688 5688 5687 5686 5685 5685 5684 5683 5682 5681 5680 5680 5679 5678 5677 5676 5674 5674 5673 5672 5671 5670 5668 5667 5666 5665 5664 5662 5662 5662 5661 5660 5658 5657 5655 5654 5653 5653 5652 5650 5650 5649 5648 5647
5733 5731 5730 5730 5729 5727 5726 5724 5723 5721 5721 5720 5718 5718 5718 5716 5714 5713 5712 5712 5711 5710 5709 5708 5708 5708 5707 5706 5705 5704 5703 5702 5701 5700 5699 5698 5697 5696 5695 5695 5694 5693 5692 5692 5691 5690 5689 5688 5687 5686 5685 5684 5684 5683 5682 5682 5681 5680 5680 5679 5678 5676 5676 5675 5675 5674 5673 5672 5671 5669 5668 5667 5665 5664 5663 5661 5660 5659 5658 5657 5655 5655 5654 5653 5652 5650 5649 5647 5646 5645 5645 5644 5642 5641 5640 5639 5638
5730 5729 5728 5727 5726 5725 5723 5722 5720 5718 5718 5717 5714 5714 5715 5713 5711 5709 5707 5707 5708 5707 5706 5705 5704 5703 5703 5702 5701 5700 5699 5698 5696 5696 5695 5693 5692 5691 5690 5690 5689 5688 5687 5686 5686 5685 5684 5683 5682 5681 5680 5679 5678 5678 5677 5676 5676 5675 5674 5673 5672 5671 5670 5669 5669 5668 5667 5666 5665 5664 5662 5660 5658 5657 5656 5655 5653 5652 5652 5651 5649 5647 5646 5645 5644 5643 5641 5639 5638 5637 5636 5635 5634 5633 5632 5631 5629
5728 5727 5726 5724 5723 5722 5721 5719 5718 5715 5714 5714 5711 5710 5711 5708 5706 5705 5703 5703 5704 5703 5702 5701 5700 5699 5699 5698 5697 5696 5694 5693 5692 5691 5690 5689 5688 5687 5686 5685 5684 5683 5682 5681 5681 5680 5679 5679 5678 5677 5675 5674 5673 5672 5672 5671 5671 5670 5669 5668 5667 5666 5665 5664 5663 5662 5661 5661 5660 5658 5656 5653 5652 5650 5649 5648 5647 5646 5645 5644 5642 5640 5639 5638 5636 5635 5633 5632 5630 5629 5628 5627 5625 5624 5623 5622 5621
5726 5725 5724 5722 5721 5720 5719 5717 5715 5713 5711 5711 5708 5707 5708 5705 5702 5701 5700 5700 5700 5700 5698 5697 5697 5696 5694 5694 5692 5691 5690 5689 5688 5686 5685 5684 5683 5682 5681 5680 5680 5679 5678 5678 5677 5676 5675 5674 5673 5672 5671 5670 5669 5668 5667 5666 5665 5664 5663 5663 5661 5660 5660 5659 5657 5657 5656 5655 5653 5651 5649 5647 5646 5644 5643 5641 5640 5639 5638 5637 5635 5633 5632 5631 5629 5628 5626 5624 5622 5621 5620 5618 5617 5616 5615 5614 5612
5724 5723 5722 5720 5719 5718 5717 5715 5713 5711 5709 5707 5706 5706 5705 5702 5699 5698 5697 5697 5696 5696 5695 5693 5692 5691 5690 5689 5688 5687 5686 5685 5684 5683 5682 5681 5680 5679 5678 5677 5676 5675 5674 5673 5672 5671 5671 5670 5669 5667 5666 5665 5664 5663 5662 5661 5660 5659 5658 5657 5656 5655 5654 5653 5652 5651 5650 5648 5646 5645 5643 5642 5640 5638 5636 5635 5633 5632 5631 5629 5628 5626 5624 5623 5622 5620 5619 5617 5614 5613 5612 5610 5609 5607 5607 5606 5604
5723 5722 5720 5719 5717 5716 5715 5714 5712 5710 5707 5704 5703 5704 5703 5699 5696 5696 5695 5694 5693 5693 5692 5690 5689 5688 5687 5685 5684 5683 5682 5681 5680 5679 5678 5678 5677 5676 5675 5674 5672 5671 5670 5668 5668 5667 5667 5665 5664 5663 5662 5661 5660 5659 5657 5656 5654 5654 5653 5652 5651 5650 5649 5648 5647 5646 5644 5641 5640 5639 5637 5636 5634 5632 5630 5628 5626 5625 5624 5622 5620 5619 5617 5616 5614 5613 5611 5609 5607 5605 5604 5602 5601 5600 5598 5597 5596
5723 5721 5720 5718 5717 5715 5713 5712 5710 5709 5707 5703 5701 5701 5702 5698 5693 5693 5693 5691 5691 5690 5689 5688 5686 5685 5684 5683 5682 5680 5679 5678 5677 5676 5675 5674 5673 5672 5671 5670 5669 5668 5666 5665 5664 5663 5662 5661 5660 5659 5658 5657 5656 5654 5653 5651 5650 5648 5647 5646 5645 5644 5643 5642 5641 5639 5637 5635 5634 5633 5631 5630 5628 5626 5624 5622 5619 5618 5617 5615 5613 5612 5610 5608 5607 5605 5603 5601 5599 5597 5595 5594 5593 5592 5590 5589 5588
5722 5720 5719 5717 5715 5713 5711 5709 5708 5707 5705 5702 5699 5697 5698 5697 5692 5690 5690 5688 5688 5687 5686 5685 5683 5682 5680 5680 5679 5677 5676 5675 5673 5673 5672 5671 5670 5669 5668 5667 5666 5664 5663 5661 5660 5659 5658 5657 5655 5654 5653 5652 5651 5649 5648 5646 5645 5644 5642 5641 5639 5638 5638 5637 5635 5633 5631 5629 5628 5626 5625 5624 5622 5620 5618 5615 5613 5611 5609 5608 5606 5605 5603 5601 5599 5598 5596 5594 5591 5589 5587 5586 5584 5583 5582 5581 5579
5721 5719 5717 5715 5713 5711 5709 5707 5706 5705 5703 5700 5698 5694 5694 5694 5690 5688 5687 5685 5684 5683 5682 5681 5680 5679 5677 5676 5675 5674 5673 5672 5670 5669 5668 5667 5666 5665 5664 5663 5662 5660 5659 5658 5656 5655 5654 5652 5651 5649 5648 5647 5645 5644 5642 5641 5640 5638 5636 5635 5633 5632 5631 5630 5627 5625 5624 5623 5621 5620 5618 5617 5615 5613 5611 5609 5606 5604 5601 5600 5599 5597 5595 5593 5591 5590 5588 5586 5583 5581 5579 5578 5576 5574 5573 5572 5570
5719 5718 5716 5714 5712 5710 5708 5706 5704 5703 5702 5699 5697 5694 5691 5691 5687 5683 5682 5681 5680 5679 5677 5677 5676 5675 5674 5673 5672 5670 5669 5668 5667 5666 5665 5663 5662 5661 5660 5659 5657 5656 5654 5653 5652 5650 5649 5647 5646 5644 5643 5641 5639 5638 5636 5635 5633 5632 5630 5629 5628 5626 5624 5622 5620 5618 5617 5615 5614 5613 5611 5609 5607 5606 5604 5602 5599 5596 5594 5592 5590 5588 5587 5584 5582 5581 5579 5577 5575 5573 5571 5569 5566 5565 5564 5563 5561
5718 5716 5715 5712 5710 5709 5707 5705 5703 5701 5700 5698 5696 5693 5690 5689 5685 5679 5677 5676 5675 5674 5673 5672 5672 5671 5670 5669 5668 5667 5666 5664 5663 5662 5661 5659 5658 5657 5655 5654 5653 5651 5650 5648 5647 5645 5643 5642 5640 5639 5637 5635 5633 5632 5630 5628 5626 5625 5623 5622 5621 5619 5616 5614 5612 5610 5609 5608 5606 5605 5603 5601 5599 5597 5596 5594 5592 5589 5587 5584 5582 5580 5578 5576 5574 5572 5571 5569 5567 5564 5562 5560 5558 5556 5554 5553 5551
5717 5715 5713 5711 5709 5707 5705 5703 5701 5700 5699 5697 5694 5691 5687 5685 5682 5677 5674 5672 5670 5669 5668 5668 5667 5667 5667 5666 5665 5664 5662 5661 5660 5659 5657 5655 5653 5651 5650 5649 5647 5646 5645 5643 5642 5640 5638 5637 5635 5633 5631 5629 5627 5625 5623 5622 5620 5618 5616 5614 5613 5611 5608 5606 5604 5603 5601 5599 5598 5597 5594 5593 5591 5589 5588 5585 5584 5582 5579 5577 5574 5572 5569 5568 5566 5564 5562 5560 5557 5556 5553 5551 5549 5547 5545 5543 5541
5716 5714 5712 5710 5707 5706 5704 5702 5700 5698 5696 5694 5692 5689 5686 5683 5680 5675 5672 5669 5667 5665 5664 5663 5662 5663 5663 5663 5662 5661 5659 5658 5656 5655 5653 5650 5648 5646 5644 5643 5642 5640 5639 5637 5636 5635 5633 5631 5629 5628 5626 5623 5621 5619 5617 5615 5613 5611 5610 5607 5605 5603 5601 5599 5597 5595 5593 5591 5590 5588 5586 5584 5582 5581 5579 5577 5576 5574 5571 5568 5565 5563 5561 5559 5557 5554 5552 5550 5548 5546 5544 5542 5540 5537 5535 5533 5531
5714 5712 5710 5708 5705 5703 5702 5700 5697 5695 5694 5692 5689 5687 5684 5681 5678 5674 5670 5668 5665 5663 5661 5660 5659 5658 5658 5658 5657 5657 5656 5654 5652 5650 5648 5646 5644 5641 5639 5637 5636 5635 5633 5632 5630 5629 5627 5625 5623 5622 5619 5617 5614 5612 5610 5608 5606 5605 5602 5600 5598 5596 5593 5591 5589 5587 5585 5582 5581 5579 5577 5575 5573 5572 5570 5569 5567 5564 5561 5559 5557 5554 5552 5550 5547 5545 5543 5540 5537 5536 5534 5533 5530 5528 5526 5523 5522
5713 5710 5708 5705 5702 5699 5698 5696 5693 5692 5690 5689 5687 5685 5682 5680 5677 5673 5669 5667 5665 5662 5661 5658 5656 5655 5653 5653 5652 5652 5651 5650 5648 5646 5644 5642 5640 5637 5635 5632 5630 5629 5627 5626 5624 5623 5621 5619 5617 5615 5613 5610 5608 5606 5603 5601 5599 5597 5594 5592 5590 5588 5586 5583 5581 5579 5577 5574 5572 5570 5567 5565 5564 5563 5561 5560 5558 5554 5552 5550 5547 5545 5543 5540 5538 5536 5533 5531 5528 5525 5524 5522 5520 5519 5516 5513 5512
5711 5709 5706 5703 5700 5697 5694 5692 5689 5686 5686 5686 5684 5682 5680 5678 5676 5672 5667 5665 5664 5661 5660 5657 5654 5652 5650 5648 5647 5646 5646 5644 5643 5641 5639 5637 5635 5632 5630 5628 5625 5623 5621 5619 5618 5616 5614 5612 5610 5609 5606 5603 5600 5598 5596 5594 5591 5589 5586 5585 5582 5580 5577 5575 5573 5571 5568 5565 5563 5560 5558 5556 5554 5553 5551 5550 5547 5545 5543 5541 5538 5536 5534 5531 5528 5526 5523 5521 5518 5516 5514 5512 5510 5508 5505 5503 5501
5709 5707 5704 5701 5698 5694 5691 5689 5686 5682 5679 5680 5680 5679 5678 5676 5674 5671 5666 5663 5662 5659 5657 5654 5651 5649 5646 5644 5642 5641 5640 5638 5637 5636 5634 5631 5629 5627 5624 5622 5620 5618 5616 5613 5611 5609 5607 5605 5603 5601 5599 5596 5593 5591 5588 5586 5584 5581 5579 5576 5574 5571 5569 5567 5565 5562 5559 5556 5553 5551 5549 5547 5544 5543 5541 5539 5537 5535 5533 5531 5529 5527 5524 5521 5519 5516 5513 5511 5508 5506 5504 5502 5500 5497 5494 5492 5490
5705 5703 5701 5698 5695 5692 5688 5685 5683 5679 5673 5672 5673 5673 5673 5673 5671 5669 5665 5661 5660 5656 5654 5651 5647 5645 5642 5640 5638 5636 5634 5633 5631 5630 5628 5625 5623 5621 5618 5616 5614 5612 5610 5608 5606 5603 5601 5599 5596 5594 5591 5589 5586 5583 5581 5578 5576 5573 5571 5568 5566 5563 5561 5558 5556 5553 5550 5547 5544 5542 5540 5537 5534 5532 5530 5528 5526 5524 5523 5521 5519 5517 5514 5511 5509 5506 5503 5500 5498 5495 5494 5492 5490 5487 5484 5482 5480
5702 5700 5697 5694 5691 5688 5685 5680 5678 5676 5669 5665 5665 5665 5667 5669 5668 5666 5664 5660 5656 5653 5650 5647 5643 5640 5637 5635 5633 5632 5630 5628 5626 5625 5622 5620 5617 5615 5612 5610 5608 5606 5604 5601 5599 5596 5594 5592 5589 5587 5584 5581 5578 5575 5573 5570 5567 5565 5562 5560 5557 5554 5552 5550 5547 5544 5541 5538 5535 5533 5530 5527 5524 5521 5518 5516 5515 5513 5512 5510 5508 5506 5503 5501 5498 5495 5492 5489 5487 5485 5483 5481 5479 5477 5474 5473 5470
5699 5697 5695 5691 5688 5684 5681 5676 5673 5671 5665 5659 5657 5655 5658 5664 5665 5662 5661 5657 5652 5649 5647 5644 5641 5636 5632 5629 5627 5626 5624 5623 5621 5619 5617 5615 5611 5608 5605 5603 5601 5599 5597 5594 5591 5589 5586 5584 5581 5579 5576 5573 5570 5567 5564 5561 5558 5556 5554 5551 5548 5545 5543 5540 5537 5535 5531 5528 5526 5523 5520 5518 5514 5511 5507 5505 5504 5502 5501 5499 5497 5495 5492 5490 5487 5484 5481 5478 5475 5474 5472 5470 5468 5465 5463 5462 5460
5696 5694 5691 5689 5685 5681 5677 5673 5670 5668 5662 5656 5651 5645 5646 5656 5661 5657 5656 5652 5647 5645 5642 5638 5636 5632 5627 5624 5621 5620 5618 5617 5615 5613 5611 5608 5604 5600 5597 5595 5593 5591 5589 5587 5584 5581 5579 5576 5573 5570 5568 5565 5562 5559 5556 5553 5550 5547 5545 5542 5539 5536 5533 5530 5528 5525 5521 5519 5517 5513 5510 5508 5504 5501 5497 5494 5493 5491 5489 5487 5485 5483 5481 5479 5476 5473 5470 5467 5464 5462 5460 5458 5456 5453 5451 5450 5448
5693 5690 5688 5685 5682 5678 5673 5670 5667 5664 5659 5654 5649 5638 5634 5646 5654 5652 5650 5647 5643 5640 5636 5632 5629 5625 5621 5617 5615 5613 5611 5609 5608 5605 5603 5600 5597 5593 5590 5588 5585 5583 5581 5578 5576 5574 5571 5568 5565 5562 5560 5557 5554 5551 5547 5545 5542 5539 5536 5534 5530 5527 5524 5521 5518 5515 5512 5510 5507 5503 5500 5497 5494 5491 5487 5484 5482 5480 5478 5476 5474 5472 5470 5467 5465 5462 5459 5456 5453 5451 5449 5446 5444 5442 5440 5438 5436
5690 5687 5684 5681 5678 5674 5670 5666 5664 5660 5654 5650 5648 5635 5625 5636 5647 5645 5643 5641 5638 5634 5630 5626 5623 5618 5614 5611 5608 5606 5604 5602 5600 5598 5595 5592 5589 5586 5583 5581 5578 5575 5573 5570 5567 5565 5562 5559 5556 5553 5550 5548 5545 5541 5538 5535 5533 5530 5527 5524 5521 5518 5514 5511 5508 5505 5502 5499 5496 5493 5490 5486 5483 5481 5476 5473 5471 5468 5466 5464 5462 5460 5458 5456 5453 5450 5447 5444 5442 5440 5437 5435 5433 5430 5429 5427 5424